Tracking 29528 objects as of 12-Sep-2024
HD Live streaming from Space Station
objects crossing your sky now

FENGYUN 1C DEB

Track FENGYUN 1C DEB now!
10-day predictions


NORAD ID: 32353
Int'l Code: 1999-025CYW
Perigee: 810.3 km
Apogee: 1,007.1 km
Inclination: 98.9 °
Period: 103.0 minutes
Semi major axis: 7279 km
RCS: 0.0065 m2 (small)
Launch date: May 10, 1999
Source: People's Republic of China (PRC)
Launch site: Taiyaun Space Center, China (TSC)

Note: This is SATELLITE DEBRIS
Your satellite tracking list
Your tracking list is empty




NASA's NSSDC Master Catalog

Two Line Element Set (TLE):
1 32353U 99025CYW 24256.29211935  .00008690  00000-0  57116-2 0  9997
2 32353  98.9126  77.1072 0135140  26.9908 333.8201 13.97753223568017
Source of the keplerian elements: AFSPC